Time,TemperatureF,DewpointF,PressureIn,WindDirection,WindDirectionDegrees,WindSpeedMPH,WindSpeedGustMPH,Humidity,HourlyPrecipIn,Conditions,Clouds,dailyrainin,SoftwareType,DateUTC
2013-01-10 00:03:00,53.0,51.0,29.95,North,355,0.0,0.0,93,0.00,,,1.95,,2013-01-10 05:03:00,
2013-01-10 00:12:00,53.0,51.0,29.95,North,355,0.0,0.0,93,0.00,,,1.95,,2013-01-10 05:12:00,
2013-01-10 00:22:00,53.0,51.0,29.95,North,355,0.0,0.0,93,0.00,,,1.81,,2013-01-10 05:22:00,
2013-01-10 00:33:00,53.0,51.0,29.95,North,355,0.0,0.0,93,0.00,,,1.81,,2013-01-10 05:33:00,
2013-01-10 00:42:00,53.0,51.0,29.95,North,355,0.0,0.0,93,0.00,,,1.81,,2013-01-10 05:42:00,
2013-01-10 00:52:00,53.0,51.0,29.95,North,355,0.0,0.0,93,0.00,,,1.81,,2013-01-10 05:52:00,
2013-01-10 01:02:00,53.0,51.0,29.95,North,355,0.0,0.0,93,0.00,,,1.81,,2013-01-10 06:02:00,
2013-01-10 01:12:00,53.0,51.0,29.95,North,355,0.0,0.0,93,0.00,,,1.81,,2013-01-10 06:12:00,
2013-01-10 01:22:00,52.0,50.0,29.94,North,355,0.0,0.0,92,0.00,,,1.78,,2013-01-10 06:22:00,
2013-01-10 01:32:00,51.0,49.0,29.94,North,355,0.0,0.0,93,0.00,,,1.78,,2013-01-10 06:32:00,
2013-01-10 01:42:00,51.0,49.0,29.94,North,355,0.0,0.0,93,0.00,,,1.78,,2013-01-10 06:42:00,
2013-01-10 01:52:00,51.0,49.0,29.94,North,355,0.0,0.0,93,0.00,,,1.78,,2013-01-10 06:52:00,
2013-01-10 02:02:00,51.0,49.0,29.95,North,355,0.0,0.0,93,0.00,,,1.78,,2013-01-10 07:02:00,
2013-01-10 02:12:00,51.0,49.0,29.95,North,355,0.0,0.0,93,0.00,,,1.78,,2013-01-10 07:12:00,
2013-01-10 02:22:00,50.0,48.0,29.94,North,355,0.0,0.0,92,0.00,,,1.32,,2013-01-10 07:22:00,
2013-01-10 02:32:00,49.0,47.0,29.93,North,355,0.0,0.0,92,0.00,,,1.32,,2013-01-10 07:32:00,
2013-01-10 02:42:00,49.0,47.0,29.93,North,355,0.0,0.0,92,0.00,,,1.32,,2013-01-10 07:42:00,
2013-01-10 02:52:00,48.0,46.0,29.94,North,355,0.0,0.0,93,0.00,,,1.32,,2013-01-10 07:52:00,
2013-01-10 03:02:00,47.0,45.0,29.95,North,355,0.0,0.0,93,0.00,,,1.32,,2013-01-10 08:02:00,
2013-01-10 03:12:00,47.0,45.0,29.95,North,355,0.0,0.0,93,0.00,,,1.32,,2013-01-10 08:12:00,
2013-01-10 03:22:00,48.0,46.0,29.94,North,355,0.0,0.0,93,0.00,,,0.97,,2013-01-10 08:22:00,
2013-01-10 03:32:00,49.0,47.0,29.93,North,355,0.0,0.0,94,0.00,,,0.97,,2013-01-10 08:32:00,
2013-01-10 03:42:00,49.0,47.0,29.93,North,355,0.0,0.0,94,0.00,,,0.97,,2013-01-10 08:42:00,
2013-01-10 03:52:00,49.0,47.0,29.94,North,355,0.0,0.0,94,0.00,,,0.97,,2013-01-10 08:52:00,
2013-01-10 04:02:00,49.0,47.0,29.95,North,355,0.0,0.0,94,0.00,,,0.97,,2013-01-10 09:02:00,
2013-01-10 04:12:00,49.0,47.0,29.95,North,355,0.0,0.0,94,0.00,,,0.97,,2013-01-10 09:12:00,
2013-01-10 04:22:00,49.0,47.0,29.95,North,355,0.0,0.0,94,0.00,,,0.74,,2013-01-10 09:22:00,
2013-01-10 04:32:00,48.0,46.0,29.96,North,355,0.0,0.0,94,0.00,,,0.74,,2013-01-10 09:32:00,
2013-01-10 04:42:00,48.0,46.0,29.96,North,355,0.0,0.0,94,0.00,,,0.74,,2013-01-10 09:42:00,
2013-01-10 04:52:00,48.0,46.0,29.96,North,355,0.0,0.0,94,0.00,,,0.74,,2013-01-10 09:52:00,
2013-01-10 05:03:00,48.0,46.0,29.96,North,355,0.0,0.0,94,0.01,,,0.75,,2013-01-10 10:03:00,
2013-01-10 05:12:00,48.0,46.0,29.96,North,355,0.0,0.0,94,0.01,,,0.75,,2013-01-10 10:12:00,
2013-01-10 05:22:00,48.0,46.0,29.96,North,355,0.0,0.0,94,0.01,,,0.55,,2013-01-10 10:22:00,
2013-01-10 05:32:00,48.0,46.0,29.96,North,355,0.0,0.0,94,0.01,,,0.55,,2013-01-10 10:32:00,
2013-01-10 05:42:00,48.0,46.0,29.96,North,355,0.0,0.0,94,0.01,,,0.55,,2013-01-10 10:42:00,
2013-01-10 05:52:00,48.0,46.0,29.95,North,355,0.0,0.0,94,0.01,,,0.55,,2013-01-10 10:52:00,
2013-01-10 06:02:00,48.0,46.0,29.95,North,355,0.0,0.0,94,0.00,,,0.55,,2013-01-10 11:02:00,
2013-01-10 06:12:00,48.0,46.0,29.95,North,355,0.0,0.0,94,0.00,,,0.55,,2013-01-10 11:12:00,
2013-01-10 06:22:00,48.0,46.0,29.96,North,355,0.0,0.0,94,0.00,,,0.49,,2013-01-10 11:22:00,
2013-01-10 06:32:00,48.0,46.0,29.95,North,355,3.0,6.0,94,0.00,,,0.49,,2013-01-10 11:32:00,
2013-01-10 06:42:00,48.0,46.0,29.95,North,355,3.0,6.0,94,0.00,,,0.49,,2013-01-10 11:42:00,
2013-01-10 06:52:00,48.0,46.0,29.93,North,355,0.0,6.0,94,0.00,,,0.49,,2013-01-10 11:52:00,
2013-01-10 07:03:00,48.0,46.0,29.93,North,355,3.0,6.0,94,0.00,,,0.49,,2013-01-10 12:03:00,
2013-01-10 07:12:00,48.0,46.0,29.93,North,355,3.0,6.0,94,0.00,,,0.49,,2013-01-10 12:12:00,
2013-01-10 07:22:00,48.0,47.0,29.93,NNW,339,3.0,12.0,95,0.00,,,0.44,,2013-01-10 12:22:00,
2013-01-10 07:32:00,48.0,47.0,29.94,NNW,327,6.0,11.0,95,0.00,,,0.44,,2013-01-10 12:32:00,
2013-01-10 07:42:00,48.0,47.0,29.94,NNW,327,6.0,11.0,95,0.00,,,0.44,,2013-01-10 12:42:00,
2013-01-10 07:52:00,48.0,46.0,29.94,NW,314,5.0,13.0,94,0.00,,,0.44,,2013-01-10 12:52:00,
2013-01-10 08:02:00,48.0,46.0,29.94,NW,314,5.0,13.0,94,0.00,,,0.44,,2013-01-10 13:02:00,
2013-01-10 08:12:00,48.0,46.0,29.94,NW,314,5.0,13.0,94,0.00,,,0.44,,2013-01-10 13:12:00,
2013-01-10 08:22:00,48.0,46.0,29.95,NW,308,3.0,7.0,94,0.00,,,0.32,,2013-01-10 13:22:00,
2013-01-10 08:32:00,48.0,46.0,29.95,NW,308,3.0,7.0,94,0.00,,,0.32,,2013-01-10 13:32:00,
2013-01-10 08:42:00,48.0,46.0,29.95,NW,308,3.0,7.0,94,0.00,,,0.32,,2013-01-10 13:42:00,
2013-01-10 08:52:00,47.0,45.0,29.96,NW,308,2.0,5.0,93,0.00,,,0.32,,2013-01-10 13:52:00,
2013-01-10 09:02:00,47.0,45.0,29.96,NW,308,2.0,5.0,93,0.00,,,0.32,,2013-01-10 14:02:00,
2013-01-10 09:12:00,47.0,45.0,29.96,NW,308,2.0,5.0,93,0.00,,,0.32,,2013-01-10 14:12:00,
2013-01-10 09:22:00,47.0,45.0,29.97,NW,308,3.0,7.0,92,0.00,,,0.14,,2013-01-10 14:22:00,
2013-01-10 09:33:00,47.0,45.0,29.97,NW,308,3.0,7.0,92,0.00,,,0.14,,2013-01-10 14:33:00,
2013-01-10 09:43:00,47.0,45.0,29.97,NW,308,3.0,7.0,92,0.00,,,0.14,,2013-01-10 14:43:00,
2013-01-10 09:53:00,46.0,43.0,29.97,WNW,294,6.0,12.0,89,0.00,,,0.14,,2013-01-10 14:53:00,
2013-01-10 10:03:00,47.0,43.0,29.97,WNW,294,5.0,9.0,86,0.00,,,0.14,,2013-01-10 15:03:00,
2013-01-10 10:12:00,47.0,43.0,29.97,WNW,294,5.0,9.0,86,0.00,,,0.14,,2013-01-10 15:12:00,
2013-01-10 10:22:00,48.0,44.0,29.97,WNW,294,3.0,9.0,85,0.00,,,0.09,,2013-01-10 15:22:00,
2013-01-10 10:33:00,48.0,43.0,29.95,WNW,294,4.0,7.0,84,0.00,,,0.09,,2013-01-10 15:33:00,
2013-01-10 10:43:00,48.0,43.0,29.95,WNW,294,4.0,7.0,84,0.00,,,0.09,,2013-01-10 15:43:00,
2013-01-10 10:53:00,49.0,43.0,29.95,WNW,294,9.0,13.0,81,0.00,,,0.09,,2013-01-10 15:53:00,
2013-01-10 11:02:00,49.0,43.0,29.95,WNW,294,9.0,13.0,81,0.00,,,0.09,,2013-01-10 16:02:00,
2013-01-10 11:13:00,49.0,43.0,29.95,WNW,294,9.0,13.0,81,0.00,,,0.09,,2013-01-10 16:13:00,
2013-01-10 11:23:00,51.0,43.0,29.96,West,281,10.0,19.0,74,0.00,,,0.05,,2013-01-10 16:23:00,
2013-01-10 11:33:00,52.0,43.0,29.97,West,281,10.0,18.0,72,0.00,,,0.05,,2013-01-10 16:33:00,
2013-01-10 11:43:00,52.0,43.0,29.97,West,281,10.0,18.0,72,0.00,,,0.05,,2013-01-10 16:43:00,
2013-01-10 11:52:00,53.0,43.0,29.97,WSW,256,12.0,24.0,70,0.00,,,0.05,,2013-01-10 16:52:00,
2013-01-10 12:03:00,54.0,44.0,29.97,NNW,337,10.0,21.0,69,0.00,,,0.05,,2013-01-10 17:03:00,
2013-01-10 12:12:00,54.0,44.0,29.97,NNW,337,10.0,21.0,69,0.00,,,0.05,,2013-01-10 17:12:00,
2013-01-10 12:22:00,55.0,45.0,29.97,NW,304,6.0,19.0,68,0.00,,,0.05,,2013-01-10 17:22:00,
2013-01-10 12:33:00,55.0,44.0,29.98,NW,304,7.0,19.0,66,0.00,,,0.05,,2013-01-10 17:33:00,
2013-01-10 12:42:00,55.0,44.0,29.98,NW,304,7.0,19.0,66,0.00,,,0.05,,2013-01-10 17:42:00,
2013-01-10 12:53:00,56.0,45.0,29.98,WNW,294,8.0,16.0,66,0.00,,,0.05,,2013-01-10 17:53:00,
2013-01-10 13:03:00,57.0,45.0,29.98,WNW,294,6.0,17.0,64,0.00,,,0.05,,2013-01-10 18:03:00,
2013-01-10 13:12:00,56.0,44.0,29.98,WNW,302,8.0,16.0,64,0.00,,,0.03,,2013-01-10 18:12:00,
2013-01-10 13:23:00,56.0,44.0,29.98,WNW,302,8.0,16.0,64,0.00,,,0.03,,2013-01-10 18:23:00,
2013-01-10 13:33:00,57.0,45.0,29.97,NW,314,7.0,14.0,63,0.00,,,0.03,,2013-01-10 18:33:00,
2013-01-10 13:43:00,58.0,45.0,29.97,West,279,3.0,15.0,62,0.00,,,0.03,,2013-01-10 18:43:00,
2013-01-10 13:52:00,58.0,45.0,29.97,West,279,3.0,15.0,62,0.00,,,0.03,,2013-01-10 18:52:00,
2013-01-10 14:03:00,59.0,45.0,29.96,WNW,289,3.0,13.0,60,0.00,,,0.03,,2013-01-10 19:03:00,
2013-01-10 14:13:00,58.0,45.0,29.95,West,262,3.0,13.0,61,0.00,,,0.01,,2013-01-10 19:13:00,
2013-01-10 14:23:00,58.0,45.0,29.95,West,262,3.0,13.0,61,0.00,,,0.01,,2013-01-10 19:23:00,
2013-01-10 14:33:00,59.0,44.0,29.95,West,276,1.0,6.0,58,0.00,,,0.01,,2013-01-10 19:33:00,
2013-01-10 14:43:00,59.0,44.0,29.95,West,276,1.0,6.0,58,0.00,,,0.01,,2013-01-10 19:43:00,
2013-01-10 14:52:00,59.0,45.0,29.94,West,266,3.0,8.0,59,0.00,,,0.01,,2013-01-10 19:52:00,
2013-01-10 15:03:00,61.0,45.0,29.94,WNW,296,2.0,7.0,56,0.00,,,0.01,,2013-01-10 20:03:00,
2013-01-10 15:12:00,62.0,45.0,29.94,WNW,288,2.0,8.0,54,0.00,,,0.01,,2013-01-10 20:12:00,
2013-01-10 15:23:00,62.0,45.0,29.94,WNW,288,2.0,8.0,54,0.00,,,0.01,,2013-01-10 20:23:00,
2013-01-10 15:33:00,62.0,45.0,29.94,WNW,288,2.0,8.0,54,0.00,,,0.01,,2013-01-10 20:33:00,
2013-01-10 15:43:00,62.0,45.0,29.94,WNW,288,2.0,8.0,54,0.00,,,0.01,,2013-01-10 20:43:00,
2013-01-10 15:53:00,62.0,45.0,29.92,West,267,3.0,12.0,54,0.00,,,0.01,,2013-01-10 20:53:00,
2013-01-10 16:03:00,63.0,46.0,29.92,West,267,3.0,9.0,53,0.00,,,0.01,,2013-01-10 21:03:00,
2013-01-10 16:12:00,63.0,47.0,29.92,West,277,4.0,11.0,55,0.00,,,0.01,,2013-01-10 21:12:00,
2013-01-10 16:23:00,63.0,47.0,29.92,West,277,4.0,11.0,55,0.00,,,0.01,,2013-01-10 21:23:00,
2013-01-10 16:33:00,64.0,47.0,29.91,West,277,0.0,0.0,54,0.00,,,0.01,,2013-01-10 21:33:00,
2013-01-10 16:42:00,64.0,47.0,29.91,West,277,0.0,0.0,54,0.00,,,0.01,,2013-01-10 21:42:00,
2013-01-10 16:53:00,63.0,45.0,29.91,West,265,2.0,12.0,52,0.00,,,0.01,,2013-01-10 21:53:00,
2013-01-10 17:03:00,65.0,46.0,29.91,West,265,1.0,6.0,50,0.00,,,0.01,,2013-01-10 22:03:00,
2013-01-10 17:12:00,64.0,45.0,29.92,West,265,0.0,9.0,51,0.00,,,0.01,,2013-01-10 22:12:00,
2013-01-10 17:25:00,64.0,45.0,29.92,West,265,0.0,9.0,51,0.00,,,0.01,,2013-01-10 22:25:00,
2013-01-10 17:33:00,64.0,47.0,29.92,West,265,7.0,10.0,53,0.00,,,0.01,,2013-01-10 22:33:00,
2013-01-10 17:43:00,64.0,47.0,29.92,West,265,7.0,10.0,53,0.00,,,0.01,,2013-01-10 22:43:00,
2013-01-10 18:02:00,65.0,46.0,29.92,West,265,0.0,0.0,51,0.00,,,0.01,,2013-01-10 23:02:00,
2013-01-10 18:12:00,64.0,45.0,29.92,West,265,5.0,8.0,51,0.00,,,0.01,,2013-01-10 23:12:00,
2013-01-10 18:23:00,64.0,45.0,29.92,West,265,5.0,8.0,51,0.00,,,0.01,,2013-01-10 23:23:00,
2013-01-10 18:33:00,64.0,45.0,29.92,West,265,5.0,8.0,51,0.00,,,0.01,,2013-01-10 23:33:00,
2013-01-10 18:43:00,64.0,45.0,29.92,West,265,5.0,8.0,51,0.00,,,0.01,,2013-01-10 23:43:00,
2013-01-10 18:53:00,63.0,46.0,29.91,West,265,0.0,0.0,53,0.00,,,0.01,,2013-01-10 23:53:00,
2013-01-10 19:03:00,62.0,45.0,29.92,West,265,0.0,0.0,54,0.00,,,0.01,,2013-01-11 00:03:00,
2013-01-10 19:12:00,60.0,45.0,29.91,West,265,0.0,0.0,58,0.00,,,0.01,,2013-01-11 00:12:00,
2013-01-10 19:23:00,60.0,45.0,29.91,West,265,0.0,0.0,58,0.00,,,0.01,,2013-01-11 00:23:00,
2013-01-10 19:33:00,59.0,46.0,29.92,West,265,0.0,0.0,63,0.00,,,0.01,,2013-01-11 00:33:00,
2013-01-10 19:42:00,59.0,46.0,29.92,West,265,0.0,0.0,63,0.00,,,0.01,,2013-01-11 00:42:00,
2013-01-10 19:52:00,57.0,46.0,29.92,West,265,0.0,0.0,66,0.00,,,0.01,,2013-01-11 00:52:00,
2013-01-10 20:03:00,56.0,46.0,29.92,West,265,0.0,0.0,69,0.00,,,0.01,,2013-01-11 01:03:00,
2013-01-10 20:13:00,55.0,47.0,29.92,West,265,0.0,0.0,73,0.00,,,0.01,,2013-01-11 01:13:00,
2013-01-10 20:22:00,55.0,47.0,29.92,West,265,0.0,0.0,73,0.00,,,0.01,,2013-01-11 01:22:00,
2013-01-10 20:33:00,54.0,46.0,29.93,West,265,0.0,0.0,73,0.00,,,0.01,,2013-01-11 01:33:00,
2013-01-10 20:43:00,54.0,46.0,29.93,West,265,0.0,0.0,73,0.00,,,0.01,,2013-01-11 01:43:00,
2013-01-10 20:52:00,54.0,46.0,29.93,West,265,0.0,0.0,74,0.00,,,0.01,,2013-01-11 01:52:00,
2013-01-10 21:03:00,53.0,46.0,29.94,West,265,0.0,0.0,78,0.00,,,0.01,,2013-01-11 02:03:00,
2013-01-10 21:13:00,53.0,46.0,29.94,West,265,0.0,0.0,78,0.00,,,0.01,,2013-01-11 02:13:00,
2013-01-10 21:23:00,52.0,46.0,29.93,West,265,0.0,0.0,80,0.00,,,0.01,,2013-01-11 02:23:00,
2013-01-10 21:33:00,52.0,46.0,29.93,West,265,0.0,0.0,81,0.00,,,0.01,,2013-01-11 02:33:00,
2013-01-10 21:43:00,52.0,46.0,29.93,West,265,0.0,0.0,81,0.00,,,0.01,,2013-01-11 02:43:00,
2013-01-10 21:53:00,51.0,46.0,29.93,West,265,0.0,0.0,82,0.00,,,0.01,,2013-01-11 02:53:00,
2013-01-10 22:02:00,51.0,46.0,29.93,West,265,0.0,0.0,83,0.00,,,0.01,,2013-01-11 03:02:00,
2013-01-10 22:12:00,51.0,46.0,29.93,West,265,0.0,0.0,84,0.00,,,0.01,,2013-01-11 03:12:00,
2013-01-10 22:23:00,51.0,46.0,29.93,West,265,0.0,0.0,84,0.00,,,0.01,,2013-01-11 03:23:00,
2013-01-10 22:33:00,50.0,46.0,29.94,West,265,0.0,0.0,86,0.00,,,0.01,,2013-01-11 03:33:00,
2013-01-10 22:43:00,50.0,46.0,29.94,West,265,0.0,0.0,86,0.00,,,0.01,,2013-01-11 03:43:00,
2013-01-10 22:52:00,50.0,46.0,29.94,West,265,0.0,0.0,85,0.00,,,0.01,,2013-01-11 03:52:00,
2013-01-10 23:02:00,51.0,46.0,29.94,West,265,0.0,0.0,82,0.00,,,0.01,,2013-01-11 04:02:00,
2013-01-10 23:12:00,51.0,46.0,29.94,West,265,0.0,0.0,82,0.00,,,0.01,,2013-01-11 04:12:00,
2013-01-10 23:22:00,50.0,44.0,29.94,West,265,0.0,0.0,81,0.00,,,0.01,,2013-01-11 04:22:00,
2013-01-10 23:33:00,49.0,44.0,29.94,West,265,0.0,0.0,83,0.00,,,0.01,,2013-01-11 04:33:00,
2013-01-10 23:42:00,49.0,44.0,29.94,West,265,0.0,0.0,83,0.00,,,0.01,,2013-01-11 04:42:00,
2013-01-10 23:52:00,48.0,44.0,29.93,West,265,0.0,0.0,86,0.00,,,0.01,,2013-01-11 04:52:00,